This is the latest recevied weather packets stored in our database for station/object K3BAY-1. If no packets are shown the sender has not sent any weather packets the latest 10 day(s).
| Time | Temp. | Humidity | Pressure | Rain* | Wind** | Luminosity | Snow |
|---|---|---|---|---|---|---|---|
| 1777481408 | 15.56° C | 77% | 1013.9 hPa | 0 mm | - | 119 W/m² | - |
| 1777481104 | 15.56° C | 77% | 1013.9 hPa | 0 mm | - | 140 W/m² | - |
| 1777480800 | 15.56° C | 78% | 1014.2 hPa | 0 mm | - | 144 W/m² | - |
| 1777480497 | 15° C | 79% | 1013.6 hPa | 0 mm | - | 149 W/m² | - |
| 1777480193 | 15° C | 79% | 1013.6 hPa | 0 mm | - | 123 W/m² | - |
| 1777479890 | 15° C | 79% | 1013.9 hPa | 0 mm | - | 118 W/m² | - |
| 1777479586 | 15° C | 79% | 1013.9 hPa | 0 mm | - | 87 W/m² | - |
| 1777479284 | 15° C | 79% | 1013.9 hPa | 0 mm | - | 111 W/m² | - |
| 1777478981 | 15° C | 79% | 1013.9 hPa | 0 mm | - | 109 W/m² | - |
| 1777478677 | 15° C | 79% | 1013.9 hPa | 0 mm | - | 118 W/m² | - |
| 1777478374 | 15° C | 78% | 1013.9 hPa | 0 mm | - | 90 W/m² | - |
| 1777478071 | 15° C | 79% | 1014.2 hPa | 0 mm | - | 79 W/m² | - |
| 1777477766 | 15° C | 79% | 1014.2 hPa | 0 mm | - | 78 W/m² | - |
| 1777477463 | 15° C | 79% | 1014.2 hPa | 0 mm | - | 93 W/m² | - |
| 1777477160 | 14.44° C | 79% | 1014.2 hPa | 0 mm | - | 91 W/m² | - |
| 1777476856 | 14.44° C | 79% | 1014.2 hPa | 0 mm | - | 58 W/m² | - |
| 1777476554 | 14.44° C | 79% | 1014.2 hPa | 0 mm | - | 45 W/m² | - |
| 1777476250 | 14.44° C | 78% | 1014.2 hPa | 0 mm | - | 66 W/m² | - |
| 1777475945 | 14.44° C | 78% | 1014.2 hPa | 0 mm | - | 70 W/m² | - |
| 1777475642 | 14.44° C | 78% | 1014.2 hPa | 0 mm | - | 64 W/m² | - |
| 1777475338 | 14.44° C | 78% | 1014.2 hPa | 0 mm | - | 75 W/m² | - |
| 1777475033 | 14.44° C | 77% | 1014.6 hPa | 0 mm | - | 79 W/m² | - |
| 1777474730 | 14.44° C | 77% | 1014.6 hPa | 0 mm | - | 79 W/m² | - |
| 1777474427 | 14.44° C | 78% | 1014.6 hPa | 0 mm | - | 80 W/m² | - |
| 1777474123 | 14.44° C | 78% | 1014.2 hPa | 0 mm | - | 77 W/m² | - |
* Rain latest hour (hover to see other rain measurements)
** Current wind speed in m/s (hover to see current wind gust speed)